x

Halibut Bank (46146) Wave Buoy

8:00am - Sat 21st Oct 2017 All times are PDT. -7 hours from GMT.

  • Sig Wave height 3.9ft
  • Peak Period 4s
  • Wind
    29mph, 34mph gusts
  • Sea Temp 51°f
  • Air Temp 48°f
  • Sea Pressure 1005.9mb
  • Halibut Bank
  • Halibut Bank

More Historic Weather Station data

Upgrade to MSW Pro to gain access to the past 30 days of data for over 8000 Wavebouys and Weather Stations around the globe.

Join

Comparision Forecast

View Surf forecast
   
Sat 10/21 8:00am 4ft 4s 29 34 mph 1005.9mb 51f 48f
7:00am 3.5ft 4s 27 34 mph 1006.6mb 51f 48f
6:00am 3.5ft 4s 22 29 mph 1008.1mb 51f 49f
5:00am 3ft 4s 25 31 mph 1008.7mb 51f 49f
4:00am 2.5ft 4s 22 25 mph 1009.9mb 51f 49f
3:00am 2ft 4s 20 25 mph 1010.9mb 51f 49f
2:00am 1.6ft 3s 18 22 mph 1011.1mb 51f 50f
1:00am 1ft 2s 16 22 mph 1011mb 51f 50f
12:00am 0.7ft 3s 13 16 mph 1011.3mb 51f 50f
Fri 10/20 11:00pm 0.3ft 6s 9 13 mph 1011.6mb 51f 51f
10:00pm 0.7ft 3s 7 9 mph 1011.2mb 51f 50f
9:00pm 0.7ft 6s 2 4 mph 1010.5mb 51f 50f
8:00pm 0.3ft 4s 9 9 mph 1010.2mb 51f 51f
7:00pm 0.7ft 4s 9 11 mph 1009.3mb 51f 51f
6:00pm 0.7ft 3s 7 7 mph 1008.2mb 52f 51f
5:00pm 0.7ft 3s  -  4 mph 1007.5mb 52f 52f
4:00pm 0.7ft 3s 4 7 mph 1006.6mb 52f 51f
3:00pm 1ft 3s 9 9 mph 1006mb 52f 51f
2:00pm 1ft 3s 9 9 mph 1005.5mb 52f 50f
1:00pm 1.3ft 3s 11 13 mph 1004.9mb 52f 50f
12:00pm 1.3ft 3s 9 11 mph 1004.5mb 52f 50f
11:00am 1.3ft 3s 13 13 mph 1003.7mb 51f 49f
10:00am 1.6ft 4s 13 16 mph 1003mb 51f 49f
9:00am 2ft 4s 18 22 mph 1002.4mb 51f 49f
8:00am 2ft 3s 18 20 mph 1001.7mb 52f 49f
7:00am 1.6ft 3s 16 18 mph 1001.2mb 52f 49f
6:00am 1.3ft 3s 16 18 mph 1000.6mb 52f 49f
5:00am 1ft 2s 13 16 mph 1000mb 52f 49f
4:00am 0.7ft 2s 13 16 mph 999.5mb 52f 49f
3:00am 0.7ft 3s 11 13 mph 999.1mb 52f 50f
2:00am 0.7ft 2s 9 11 mph 998.8mb 52f 50f
1:00am 1ft 2s 9 11 mph 998.3mb 52f 50f
12:00am 1ft 2s 11 13 mph 997.9mb 52f 50f
Thu 10/19 11:00pm 1ft 3s 13 16 mph 997.6mb 52f 51f
10:00pm 1ft 3s 13 16 mph 997.3mb 52f 51f
9:00pm 1.3ft 3s 13 16 mph 997.1mb 52f 51f
8:00pm 1.6ft 4s 13 16 mph 996.6mb 52f 51f
7:00pm 2ft 3s 16 20 mph 996.7mb 52f 51f
6:00pm 1.6ft 3s 20 22 mph 996.1mb 52f 51f
5:00pm 1.6ft 3s 11 13 mph 995.8mb 52f 51f
4:00pm 2ft 4s 13 16 mph 995.9mb 52f 52f
3:00pm 1.6ft 3s 16 20 mph 996.3mb 52f 52f
2:00pm 2ft 3s 16 18 mph 996.5mb 52f 52f
1:00pm 2.5ft 4s 18 22 mph 997mb 52f 52f
12:00pm 2.5ft 4s 16 20 mph 997.3mb 52f 53f
11:00am 2ft 4s 18 22 mph 997.4mb 52f 52f
10:00am 2.5ft 4s 18 22 mph 997.6mb 52f 52f
9:00am 2.5ft 4s 18 22 mph 997.6mb 52f 52f
8:00am 2ft 3s 18 20 mph 997.6mb 52f 52f
7:00am 2ft 3s 13 18 mph 997.9mb 52f 52f
6:00am 2ft 4s 20 25 mph 997.6mb 52f 53f
5:00am 1.6ft 3s 16 20 mph 997.8mb 52f 53f
4:00am 2ft 3s 18 20 mph 997.9mb 52f 53f
3:00am 1.6ft 3s 18 20 mph 998.2mb 52f 53f
2:00am 2ft 4s 16 20 mph 998.8mb 52f 53f
1:00am 2ft 4s 13 16 mph 999mb 52f 53f
12:00am 2ft 4s 18 22 mph 998.1mb 52f 53f
Wed 10/18 11:00pm 2ft 4s 18 22 mph 997.9mb 52f 53f
10:00pm 1.6ft 4s 16 20 mph 997.9mb 52f 54f
9:00pm 1.6ft 5s 9 11 mph 997.8mb 52f 53f
8:00pm 2.5ft 5s 11 16 mph 997.4mb 52f 54f
7:00pm 2.5ft 4s 20 25 mph 996.9mb 51f 52f
6:00pm 2.5ft 5s 22 27 mph 996.4mb 51f 51f
5:00pm 3ft 5s 18 20 mph 997.6mb 51f 51f
4:00pm 3.5ft 4s 18 20 mph 998.1mb 51f 51f
3:00pm 4.5ft 5s 22 27 mph 997.9mb 51f 51f
2:00pm 5ft 5s 22 27 mph 999.1mb 52f 50f
1:00pm 5ft 5s 29 36 mph 999.2mb 52f 50f
12:00pm 4.5ft 4s 31 40 mph 1000.1mb 52f 50f
11:00am 4.5ft 5s 36 43 mph 1001.6mb 52f 50f
10:00am 4ft 4s 34 45 mph 1003.2mb 52f 50f
9:00am 3.5ft 4s 29 34 mph 1005.8mb 52f 50f
8:00am 2.5ft 4s 25 31 mph 1007.8mb 52f 51f
7:00am 2.5ft 4s 25 31 mph 1009mb 52f 52f
6:00am 2.5ft 4s 20 25 mph 1010.6mb 52f 52f
5:00am 2.5ft 4s 22 27 mph 1012.1mb 52f 52f
4:00am 3ft 4s 25 29 mph 1013.4mb 52f 51f
3:00am 2.5ft 4s 27 31 mph 1014.7mb 52f 51f
2:00am 2ft 3s 25 29 mph 1015.6mb 52f 51f
1:00am 1.3ft 2s 20 22 mph 1016.6mb 52f 51f
12:00am 0.7ft 2s 18 20 mph 1017.4mb 53f 52f
Tue 10/17 11:00pm 0.7ft 2s 13 16 mph 1017.8mb 53f 52f
10:00pm 0.3ft 3s 11 16 mph 1017.8mb 53f 52f
9:00pm 0.7ft 3s 7 7 mph 1018.1mb 53f 52f
8:00pm 0.7ft 3s 4 4 mph 1018.8mb 53f 53f
7:00pm 0.7ft 3s 4 4 mph 1019.1mb 53f 53f
6:00pm 1ft 3s 7 7 mph 1018.6mb 53f 53f
5:00pm 1ft 3s 9 11 mph 1018.8mb 53f 53f